Weather observations for the past three days for
Sacramento International Airport
Imperial (Metric)
Date Time (pdt) Wind (mph) Vis. (mi.) Weather Sky Cond. Temperature (ºF) Relative Humidity Wind Chill (°F) Heat Index (°F) Pressure Precipitation (in)
Air Dwpt 6 hour altimeter (in) sea level (mb) 1 hr 3 hr 6 hr
Max. Min.
14 11:53 W 5 10.00 Mostly Cloudy BKN230 84 55 37% 83 29.99 1015.5
14 10:53 S 9 10.00 Mostly Cloudy BKN210 78.1 55 78.1 66 45% 79 30 1015.7
14 09:53 S 10 10.00 Mostly Cloudy SCT180 BKN220 72 54 53% 30.01 1016.0
14 08:53 SE 12 10.00 Mostly Cloudy BKN170 68 53.1 59% 30 1015.7
14 07:53 S 13 10.00 Mostly Cloudy SCT180 BKN230 66 53.1 63% 29.98 1015.2
14 06:53 S 12 10.00 Mostly Cloudy FEW130 BKN170 BKN230 66 53.1 63% 29.96 1014.4
14 05:53 SE 13 10.00 Mostly Cloudy FEW070 SCT090 SCT150 BKN190 68 52 57% 29.92 1013.2
14 04:53 SE 12 10.00 Mostly Cloudy FEW110 SCT130 BKN170 70 52 78.1 70 53% 29.9 1012.4
14 03:53 SE 10 10.00 Mostly Cloudy FEW110 SCT140 BKN160 72 53.1 52% 29.88 1011.7
14 02:53 S 10 10.00 Mostly Cloudy BKN170 BKN210 73 50 44% 29.87 1011.3
14 01:53 SE 10 10.00 Mostly Cloudy BKN220 75 48.9 40% 77 29.86 1011.1
14 00:53 SE 10 10.00 A Few Clouds FEW170 75.9 46.9 36% 78 29.86 1011.1
13 23:53 SE 9 10.00 A Few Clouds FEW170 77 48 36% 78 29.85 1010.7
13 22:53 SE 9 10.00 Partly Cloudy SCT170 75 52 102 75 45% 78 29.85 1010.8
13 21:53 S 9 10.00 Partly Cloudy SCT170 75.9 53.1 45% 78 29.85 1010.7
13 20:53 SE 13 10.00 Mostly Cloudy SCT110 BKN180 78.1 54 43% 79 29.84 1010.4
13 19:53 S 21 10.00 Mostly Cloudy and Breezy BKN110 BKN180 82 54 38% 81 29.82 1009.7
13 18:53 S 13 10.00 Mostly Cloudy BKN140 BKN180 90 55.9 32% 88 29.83 1009.9
13 17:53 S 15 10.00 Mostly Cloudy BKN210 91.9 60.1 34% 92 29.81 1009.3
13 16:53 S 9 10.00 Partly Cloudy SCT250 102 62.1 102 80.1 27% 104 29.79 1008.7
13 15:53 S 8 10.00 Partly Cloudy SCT200 99 57 25% 98 29.8 1009.0
13 14:53 SW 8 10.00 Mostly Cloudy BKN200 97 57 26% 96 29.82 1009.6
13 13:53 S 9 10.00 Mostly Cloudy BKN180 90 57 33% 89 29.83 1010.0
13 12:53 SE 6 10.00 Mostly Cloudy BKN200 87.1 57 36% 86 29.83 1010.2
13 11:53 SE 6 10.00 Mostly Cloudy BKN180 84.9 55.9 37% 84 29.85 1010.7
13 10:53 S 9 10.00 Mostly Cloudy BKN180 80.1 55.9 81 68 44% 80 29.86 1011.1
13 09:53 S 10 10.00 Mostly Cloudy BKN190 77 55 47% 78 29.86 1011.0
13 08:53 S 13 10.00 Mostly Cloudy BKN200 75 55 50% 78 29.84 1010.3
13 07:53 S 12 10.00 Mostly Cloudy BKN170 BKN190 75 54 48% 78 29.82 1009.7
13 06:53 SE 12 G 17 10.00 Mostly Cloudy BKN150 BKN180 73 54 51% 29.8 1009.0
13 05:53 S 8 10.00 Mostly Cloudy BKN210 69.1 55 61% 29.78 1008.4
13 04:53 SE 8 10.00 Mostly Cloudy BKN210 72 55.9 82.9 69.1 57% 29.74 1007.0
13 03:53 SW 5 10.00 Mostly Cloudy BKN230 70 55.9 61% 29.72 1006.3
13 02:53 S 9 10.00 Partly Cloudy SCT240 73 55.9 55% 29.73 1006.7
13 01:53 S 13 10.00 Mostly Cloudy BKN220 75 55 50% 78 29.73 1006.6
13 00:53 S 9 10.00 Partly Cloudy SCT220 80.1 55 42% 80 29.73 1006.7
12 23:53 SE 7 10.00 Mostly Cloudy BKN220 82.9 55 38% 82 29.73 1006.6
12 22:53 S 8 10.00 Fair CLR 80.1 57 111 80.1 45% 80 29.72 1006.4
12 21:53 S 12 10.00 Fair CLR 84 59 43% 84 29.73 1006.6
12 20:53 S 9 10.00 Fair CLR 90 59 35% 89 29.72 1006.3
12 19:53 S 10 10.00 Fair CLR 99 59 27% 99 29.72 1006.2
12 18:53 S 12 10.00 Fair CLR 105.1 54 18% 103 29.71 1006.1
12 17:53 S 6 10.00 Fair CLR 109.9 55.9 17% 109 29.71 1005.9
12 16:53 Vrbl 3 10.00 A Few Clouds FEW250 111 53.1 111 96.1 15% 109 29.7 1005.8
12 15:53 Vrbl 6 10.00 A Few Clouds FEW250 109 55.9 17% 108 29.73 1006.6
12 14:53 W 6 10.00 Fair CLR 107.1 57 19% 107 29.74 1007.2
12 13:53 W 6 10.00 Fair CLR 105.1 55.9 20% 104 29.76 1007.6
12 12:53 Vrbl 6 10.00 Fair CLR 102 57.9 23% 102 29.77 1008.1
12 11:53 Vrbl 5 10.00 Fair CLR 100 55.9 23% 99 29.78 1008.4
12 10:53 Vrbl 5 10.00 Fair CLR 96.1 62.1 96.1 73 32% 97 29.79 1008.6
12 09:53 Calm 10.00 Fair CLR 90 55.9 32% 88 29.79 1008.8
12 08:53 Calm 10.00 Fair CLR 84.9 57 39% 84 29.8 1008.9
12 07:53 E 3 10.00 Fair CLR 80.1 55.9 44% 80 29.79 1008.8
12 06:53 S 3 10.00 Fair CLR 75 55.9 52% 78 29.78 1008.5
12 05:53 S 7 10.00 Fair CLR 73.9 55.9 54% 29.77 1008.0
12 04:53 SE 5 10.00 Fair CLR 75 54 86 75 48% 78 29.76 1007.6
12 03:53 SE 6 10.00 Fair CLR 75.9 55 48% 78 29.75 1007.5
12 02:53 S 8 10.00 Fair CLR 78.1 55.9 47% 79 29.75 1007.3
12 01:53 S 6 10.00 Fair CLR 81 55.9 42% 81 29.76 1007.5
12 00:53 SE 7 10.00 Fair CLR 82.9 55.9 40% 82 29.76 1007.6
11 23:53 S 8 10.00 Fair CLR 82 59 46% 82 29.75 1007.5
11 22:53 S 5 10.00 Fair CLR 86 60.1 111 86 42% 86 29.75 1007.4
11 21:53 S 8 10.00 Fair CLR 90 59 35% 89 29.74 1007.2
11 20:53 S 7 10.00 Fair CLR 100.9 55 22% 99 29.73 1006.7
11 19:53 S 7 10.00 Fair CLR 102 51.1 18% 99 29.73 1006.6
11 18:53 S 5 10.00 Fair CLR 109 46.9 12% 105 29.73 1006.5
11 17:53 W 3 10.00 Fair CLR 109.9 45 11% 105 29.73 1006.6
11 16:53 W 6 10.00 Fair CLR 111 44.1 111 93.9 11% 106 29.74 1007.2
11 15:53 W 5 10.00 Fair CLR 109 53.1 16% 107 29.76 1007.8
11 14:53 W 7 10.00 Fair CLR 107.1 60.1 22% 109 29.78 1008.4
11 13:53 W 6 10.00 Fair CLR 104 57.9 22% 104 29.8 1009.0
Date Time (pdt) Wind (mph) Vis. (mi.) Weather Sky Cond. Air Dwpt Max. Min. Relative Humidity Wind Chill (°F) Heat Index (°F) altimeter (in) sea level (mb) 1 hr 3 hr 6 hr
6 hour
Temperature (ºF) Pressure Precipitation (in)